Weather in Lyubimets

Russia / Pskov Oblast     58°49′18″N   27°56′40″E
temp.,
°C
wind,
m/s
gust,
m/s
humid.,
%
clouds,
%
prec.,
mm/h
press.,
hPa
HPBL,
m
19 april, mon
mon1900:00+6ne310695 0.0 1028248
03:00+5ene38835 0.0 1028155
06:00+4ene37885 0.0 1028137
09:00+9ene47668 0.0 1028432
12:00+12ene455110 0.0 10281316
15:00+14ene454228 0.0 10271763
18:00+13ene354063 0.0 10261776
21:00+8ene26596 0.0 1026103
20 april, tue
tue2000:00+5ene25715 0.0 1026106
03:00+4ese23855 0.0 102543
06:00+2ene25905 0.0 1024109
09:00+6e475458 0.0 1023530
12:00+10e46405 0.0 10211735
15:00+11e453265 0.0 10192017
18:00+10e3539100 0.0 10171923
21:00+6ese275699 0.0 1017237
21 april, wed
wed2100:00+3e278050 0.0 1015207
03:00+1ene26965 0.0 1013192
06:000ne2296100 0.0 101162
09:00+4n2475100 0.0 1008424
12:00+6nnw3562100 0.0 10051234
15:00+6nnw4567100 0.0 1004953
18:00+5nnw3675100 0.1 1003720
21:00+3nnw2591100 0.1 1003283
22 april, thu
thu2200:00+2wnw1196100 0.0 100320
03:00+1ssw1195100 0.0 100310
06:000sse119551 0.0 100412
09:00+6s126812 0.0 1004277
12:00+11ssw35505 0.0 10051390
15:00+10ssw7973100 0.3 10051110
18:00+5ssw37787 0.1 1007522
21:00+4ssw28745 0.1 1008183
23 april, fri
fri2300:00+2sse39835 0.0 1008221
03:00+2s39885 0.0 1008233
06:000sse27956 0.0 1008178
09:00+5ssw356922 0.0 1008742
12:00+6sw466579 0.1 10081227
15:00+8sw3553100 0.2 10081393
18:00+7wsw2353100 0.1 1007935
21:00+3w2375100 0.1 100746